Location: Napier
(39.4830°S, 176.9170°E)
Time: 01:55:26
(UTC+12:00)

Cosmos 2366 rocket - Pass Details

Date: 15 August 2020
Orbit: 955 x 997 km, 82.9° (Epoch: 19 September)

Event Time Altitude Azimuth Distance (km) Brightness Sun altitude
Rises 18:37:16 0° 190° (S) 3,754 7.1 -12.7°
Reaches altitude 10° 18:39:50 10° 192° (SSW) 2,797 6.5 -13.2°
Maximum altitude 18:46:13 69° 273° (W) 1,068 4.4 -14.4°
Drops below altitude 10° 18:52:30 10° 355° (N) 2,747 6.5 -15.6°
Sets 18:55:00 0° 357° (N) 3,683 7.1 -16.1°
